Findlay, OH

8:41 PM EDT on October 17, 2017 (GMT -0400)
Findlay

Weather History for KFDY - May, 2015

Change the Weather History Date:

Tuesday, May 5, 2015

  Actual Average Record
Temperature  
Mean Temperature 64 °F -  
Max Temperature 75 °F 67 °F 90 °F (1952)
Min Temperature 54 °F 45 °F 33 °F (1973)
Growing Degree Days 14 (Base 50)    
Moisture  
Dew Point 58 °F    
Average Humidity 84    
Maximum Humidity 93    
Minimum Humidity 62    
Precipitation  
Precipitation 0.13 in - - ()
Sea Level Pressure  
Sea Level Pressure 30.22 in    
Wind  
Wind Speed 6 mph (East)    
Max Wind Speed 16 mph    
Max Gust Speed -    
Visibility 5 miles    
Events Rain , Thunderstorm    
Averages and records for this station are not official NWS values.
T = Trace of Precipitation, MM = Missing Value Source: NWS Daily Summary

Daily Weather History Graph

Daily Weather History Graph

Search for Another Location

Airport or City:

Trip Planner

Search our weather history database for the weather conditions in past years. The results will help you decide how hot, cold, wet, or windy it might be!

Date:

Astronomy

May. 05, 2015 Rise Set
Actual Time 6:28 AM EDT 8:35 PM EDT
Civil Twilight 5:57 AM EDT 9:05 PM EDT
Nautical Twilight 5:20 AM EDT 9:42 PM EDT
Astronomical Twilight 4:40 AM EDT 10:23 PM EDT
Moon 10:11 PM EDT (5/5) 7:38 AM EDT (5/5)
Length of Visible Light 15h 07m
Length of Day
14h 07m
Full, 98% of the Moon is Illuminated
May 5
Full
May 11
Last Quarter
May 18
New
May 25
First Quarter
Jun 2
Full

Hourly Weather History & Observations

Time (EDT) Temp. Dew Point Humidity Pressure Visibility Wind Dir Wind Speed Gust Speed Precip Events Conditions
12:53 AM 61.0 °F 57.9 °F 90% 30.17 in 4.0 mi South 5.8 mph - N/A   Overcast
1:53 AM 61.0 °F 57.9 °F 90% 30.18 in 4.0 mi SSW 8.1 mph - N/A   Partly Cloudy
2:53 AM 62.1 °F 59.0 °F 90% 30.18 in 5.0 mi SW 3.5 mph - N/A   Overcast
3:53 AM 61.0 °F 57.9 °F 90% 30.17 in 4.0 mi South 4.6 mph - N/A   Overcast
4:53 AM 62.1 °F 59.0 °F 90% 30.19 in 4.0 mi SSW 4.6 mph - N/A   Clear
5:53 AM 60.1 °F 57.0 °F 90% 30.19 in 4.0 mi South 4.6 mph - N/A   Partly Cloudy
6:29 AM 60.1 °F 57.0 °F 90% 30.22 in 2.5 mi SSW 3.5 mph - N/A   Mostly Cloudy
6:46 AM 59.0 °F 57.0 °F 93% 30.22 in 1.2 mi Calm Calm - N/A   Partly Cloudy
6:53 AM 60.1 °F 57.0 °F 90% 30.21 in 1.2 mi Calm Calm - N/A   Partly Cloudy
7:32 AM 62.1 °F 59.0 °F 90% 30.24 in 2.0 mi Calm Calm - 0.00 in Rain Light Rain
7:53 AM 62.1 °F 59.0 °F 90% 30.24 in 2.0 mi West 4.6 mph - 0.02 in Rain Light Rain
8:05 AM 62.1 °F 59.0 °F 90% 30.25 in 1.2 mi SW 3.5 mph - 0.04 in Rain Heavy Rain
8:34 AM 62.1 °F 59.0 °F 90% 30.25 in 2.0 mi South 3.5 mph - 0.08 in Rain Light Rain
8:53 AM 62.1 °F 59.0 °F 90% 30.24 in 1.8 mi SSE 4.6 mph - 0.08 in Rain Light Rain
9:35 AM 62.1 °F 60.1 °F 93% 30.25 in 1.8 mi NE 3.5 mph - 0.02 in   Overcast
9:43 AM 62.1 °F 60.1 °F 93% 30.25 in 1.8 mi Calm Calm - 0.02 in Rain Light Rain
9:53 AM 63.0 °F 60.1 °F 90% 30.24 in 1.8 mi Calm Calm - 0.02 in Rain Light Rain
10:15 AM 63.0 °F 61.0 °F 93% 30.25 in 2.0 mi South 4.6 mph - 0.01 in   Mostly Cloudy
10:29 AM 63.0 °F 61.0 °F 93% 30.26 in 3.0 mi SW 3.5 mph - 0.01 in   Mostly Cloudy
10:53 AM 64.9 °F 61.0 °F 87% 30.24 in 5.0 mi Calm Calm - 0.01 in   Mostly Cloudy
11:42 AM 66.0 °F 61.0 °F 84% 30.26 in 6.0 mi Calm Calm - N/A   Haze
11:53 AM 68.0 °F 61.0 °F 78% 30.25 in 7.0 mi NNE 3.5 mph - N/A   Scattered Clouds
12:21 PM 68.0 °F 60.1 °F 76% 30.26 in 6.0 mi NNE 4.6 mph - N/A   Haze
12:37 PM 68.0 °F 61.0 °F 78% 30.25 in 6.0 mi ENE 3.5 mph - N/A   Haze
12:53 PM 69.1 °F 62.1 °F 78% 30.23 in 7.0 mi SE 5.8 mph - N/A   Clear
1:53 PM 72.0 °F 62.1 °F 71% 30.21 in 10.0 mi ESE 4.6 mph - N/A   Mostly Cloudy
2:53 PM 75.0 °F 61.0 °F 62% 30.20 in 10.0 mi NE 4.6 mph - N/A   Overcast
3:40 PM 72.0 °F 62.1 °F 71% 30.21 in 8.0 mi NNE 15.0 mph - N/A Thunderstorm Scattered Clouds
3:53 PM 70.0 °F 62.1 °F 76% 30.19 in 6.0 mi NNE 12.7 mph - N/A Thunderstorm Unknown
4:21 PM 71.1 °F 62.1 °F 73% 30.21 in 6.0 mi NNE 13.8 mph - N/A   Haze
4:53 PM 71.1 °F 61.0 °F 70% 30.18 in 8.0 mi NE 13.8 mph - N/A   Clear
5:53 PM 68.0 °F 57.0 °F 68% 30.17 in 9.0 mi NE 12.7 mph - N/A   Clear
6:53 PM 64.9 °F 55.0 °F 70% 30.18 in 10.0 mi NE 11.5 mph - N/A   Clear
7:53 PM 59.0 °F 52.0 °F 78% 30.18 in 8.0 mi NE 15.0 mph - N/A   Clear
8:43 PM 55.9 °F 51.1 °F 84% 30.21 in 6.0 mi NE 12.7 mph - N/A   Haze
8:53 PM 55.9 °F 51.1 °F 84% 30.20 in 7.0 mi NE 15.0 mph - N/A   Partly Cloudy
9:06 PM 55.9 °F 51.1 °F 84% 30.22 in 7.0 mi NE 12.7 mph - N/A   Mostly Cloudy
9:53 PM 55.0 °F 51.1 °F 86% 30.22 in 6.0 mi NE 16.1 mph - N/A   Overcast
10:53 PM 54.0 °F 51.1 °F 90% 30.22 in 4.0 mi ENE 11.5 mph - N/A   Overcast
11:11 PM 54.0 °F 51.1 °F 90% 30.23 in 4.0 mi ENE 10.4 mph - N/A   Overcast
11:53 PM 54.0 °F 51.1 °F 90% 30.21 in 3.0 mi ENE 9.2 mph - N/A   Overcast